[[{"header":{"parameterUnit":"m.s-1","parameterCategory":1,"la1":30.2991,"la2":30.254,"lo1":-89.0895,"lo2":-89.0444,"dy":0.0017,"dx":0.0017,"nx":28,"ny":28,"refTime":"2024-03-02T09:00:00:Z","depth":0,"parameterNumber":2,"parameterNumberName":"U-component_of_WINDS"},"data":[0,0,0,0,0,0,0,0,0,0,0,0,0,0,0,0,0,0,0,0,0,0,0,0,0,0,0,0,0,0,0,0,0,0,0,0,0,0,0,0,0,0,0,0,0,0,0,0,0,0,0,0,0,0,0,0,0,0,-3.8901,-3.8901,0,-3.8853,-3.8853,-3.8852,-3.8751,-3.8749,-3.8747,-3.8745,-3.8697,-3.8698,-3.8698,0,0,0,0,0,0,0,0,0,0,0,0,0,-3.891,-3.8911,-3.8902,-3.8901,-3.89,-3.8853,-3.8853,-3.8852,-3.8751,-3.8749,-3.8746,-3.8744,-3.8697,-3.8698,-3.8698,0,0,0,0,0,0,0,0,0,0,0,0,0,-3.8889,-3.8911,-3.8902,-3.8844,-3.8839,-3.8854,-3.8853,-3.8852,-3.8752,-3.8749,-3.8746,-3.8743,-3.8697,-3.8698,-3.8698,-3.8765,0,0,-3.8701,-3.8702,0,0,0,0,0,0,0,0,-3.889,-3.8889,-3.8853,-3.8848,-3.8842,-3.8805,-3.8838,-3.8823,-3.8753,-3.8785,-3.8745,-3.8741,-3.8736,-3.8733,-3.8731,-3.8763,-3.8761,-3.8701,-3.8702,-3.8702,-3.8703,0,0,0,0,0,0,0,-3.8892,-3.889,-3.8882,-3.8853,-3.8846,-3.8823,-3.8816,-3.8835,-3.8778,-3.8782,-3.8774,-3.877,-3.8732,-3.873,-3.8729,-3.876,-3.8701,-3.8702,-3.8703,-3.8703,-3.8849,-3.8852,0,0,0,0,0,0,-3.8901,-3.8892,-3.8884,-3.8881,-3.8859,-3.8825,-3.8818,-3.882,-3.8778,-3.8768,-3.8773,-3.8766,-3.873,-3.8728,-3.8727,-3.8804,-3.8702,-3.8703,-3.8704,-3.8846,-3.885,-3.8854,0,0,0,0,0,0,-3.8902,-3.8901,-3.8886,-3.8885,-3.8881,-3.8828,-3.8832,-3.8821,-3.8819,-3.8771,-3.876,-3.8781,-3.8728,-3.8726,-3.8757,-3.8801,-3.8704,-3.8705,-3.8842,-3.8847,-3.8852,-3.8958,0,0,0,0,0,0,-3.8903,-3.8902,-3.8926,-3.8886,-3.8881,-3.8916,-3.8834,-3.8822,-3.882,-3.8811,-3.8776,-3.8767,-3.8725,-3.8757,-3.8758,-3.88,-3.8705,-3.8838,-3.8844,-3.885,-3.895,-3.8966,-3.898,0,0,0,0,0,-3.8903,-3.8957,-3.8927,-3.8927,-3.8909,-3.8919,-3.8916,-3.8866,-3.8824,-3.8848,-3.8818,-3.8768,-3.8797,-3.8761,-3.8762,-3.8805,-3.8835,-3.8843,-3.885,-3.8944,-3.8963,-3.8979,0,0,0,0,0,0,-3.9002,-3.895,-3.8917,-3.8959,-3.8944,-3.8901,-3.893,-3.8888,-3.8884,-3.8875,-3.8814,-3.8807,-3.8848,-3.883,-3.8791,-3.887,-3.8808,-3.8816,-3.8879,-3.8897,-3.8911,-3.8914,-3.8706,0,0,0,0,0,-3.9029,-3.904,-3.8995,-3.9037,-3.9031,-3.8983,-3.8984,-3.8948,-3.893,-3.8923,-3.8895,-3.888,-3.8886,-3.8891,-3.8893,-3.8949,-3.8941,-3.8979,-3.8994,-3.9006,-3.9013,-3.9044,-3.9061,-3.8878,-3.8878,-3.8878,0,0,-3.9085,-3.9058,-3.9068,-3.9056,-3.904,-3.9054,-3.8977,-3.8995,-3.9005,-3.8926,-3.8954,-3.8934,-3.8914,-3.8958,-3.8976,-3.8944,-3.9063,-3.9016,-3.9026,-3.9026,-3.9053,-3.9071,-3.9086,-3.8883,-3.8882,-3.8882,0,0,-3.9192,-3.9173,-3.9207,-3.9193,-3.9171,-3.9139,-3.9148,-3.9112,-3.9096,-3.9124,-3.9065,-3.9078,-3.9088,-3.9077,-3.9073,-3.9183,-3.9138,-3.9186,-3.9261,-3.9292,-3.9306,-3.9319,-3.9359,-3.9374,-3.9194,-3.9194,-3.9194,0,-3.9264,-3.9281,-3.9229,-3.9252,-3.9249,-3.918,-3.9215,-3.9205,-3.9184,-3.9185,-3.915,-3.9164,-3.9145,-3.9188,-3.9215,-3.9214,-3.9223,-3.9188,-3.9308,-3.932,-3.9331,-3.9369,-3.9384,-3.92,-3.9199,-3.9199,-3.9198,0,-3.9371,-3.9386,-3.9416,-3.9399,-3.94,-3.9429,-3.9383,-3.9391,-3.9357,-3.9329,-3.9361,-3.9337,-3.9335,-3.9343,-3.9308,-3.9381,-3.9362,-3.9319,-3.9256,-3.9356,-3.939,-3.9404,-3.9209,-3.9207,-3.9205,-3.9203,0,0,-3.9535,-3.9493,-3.9505,-3.9498,-3.9471,-3.9481,-3.9509,-3.9507,-3.9516,-3.9506,-3.9529,-3.9542,-3.9503,-3.9498,-3.9463,-3.949,-3.9581,-3.9443,-3.9442,-3.947,-3.9663,-3.9695,-3.9713,-3.9552,-3.9555,-3.9557,-3.9665,0,-3.9636,-3.9679,-3.9635,-3.9688,-3.9702,-3.9639,-3.9663,-3.9651,-3.9628,-3.9637,-3.9612,-3.9623,-3.9569,-3.9567,-3.9591,-3.9565,-3.9619,-3.9557,-3.9573,-3.9574,-3.9579,-3.973,-3.9763,-3.9866,-3.9678,-3.968,-3.9682,0,-3.9758,-3.9755,-3.9809,-3.9782,-3.9786,-3.9809,-3.9806,-3.9816,-3.9802,-3.9783,-3.9781,-3.9739,-3.9767,-3.9707,-3.9745,-3.9704,-3.9709,-3.9698,-3.9701,-3.9699,-3.9633,-3.9733,-3.9897,-3.9913,-3.9702,-3.9701,-3.9699,0,-3.9873,-3.9883,-3.9917,-3.9913,-3.9882,-3.99,-3.9888,-3.9871,-3.9875,-3.9873,-3.9875,-3.9877,-3.9878,-3.9882,-3.9843,-3.9803,-3.9887,-3.9823,-3.9873,-3.9874,-3.9891,-3.989,-4.0059,-3.9897,-3.9897,-3.9896,-3.9896,0,-3.9989,-4.0024,-3.9969,-3.999,-4.0029,-3.9981,-4.0022,-4.0004,-3.999,-4.0008,-3.9955,-3.9973,-3.9921,-3.9935,-3.9905,-3.9943,-3.9943,-3.993,-3.9922,-3.9934,-3.9936,-3.9935,-3.9927,-3.99,-3.9899,-3.9899,-3.9898,0,-4.0122,-4.0086,-4.0119,-4.0089,-4.0083,-4.0114,-4.0088,-4.0108,-4.0083,-4.0107,-4.011,-4.0071,-4.0085,-4.0048,-4.0055,-4.0036,-4.009,-4.007,-4.0094,-4.0088,-4.014,-4.0136,-4.0313,-4.0335,-4.016,-4.0161,-4.0163,0,-4.0197,-4.0224,-4.0198,-4.0206,-4.0198,-4.0212,-4.0216,-4.0171,-4.0178,-4.0167,-4.0188,-4.0198,-4.0203,-4.0229,-4.0202,-4.0209,-4.0189,-4.0251,-4.0189,-4.0202,-4.019,-4.0188,-4.0192,-4.0263,-4.0265,-4.0267,-4.0268,0,-4.0336,-4.0318,-4.0325,-4.0328,-4.0335,-4.0335,-4.0331,-4.0342,-4.0294,-4.0305,-4.0319,-4.0323,-4.0333,-4.0344,-4.0346,-4.0335,-4.0295,-4.0288,-4.03,-4.0312,-4.0326,-4.032,-4.0128,-4.0284,-4.0282,-4.0281,-4.028,-4.0279,-4.0442,-4.0464,-4.045,-4.0461,-4.0454,-4.0454,-4.0471,-4.0451,-4.0461,-4.0465,-4.044,-4.046,-4.045,-4.0448,-4.0443,-4.0459,-4.0431,-4.0448,-4.0452,-4.0457,-4.0466,-4.0325,-4.046,-4.0459,-4.0459,-4.0458,-4.0458,0,-4.0577,-4.0567,-4.0578,-4.0576,-4.0586,-4.0548,-4.0544,-4.0555,-4.0573,-4.0567,-4.0575,-4.0593,-4.0605,-4.0582,-4.059,-4.0608,-4.059,-4.0612,-4.061,-4.0608,-4.049,-4.0479,-4.0627,-4.0627,-4.0627,-4.0627,-4.0627,-4.0627,-4.0649,-4.0684,-4.0666,-4.0699,-4.0688,-4.0708,-4.0709,-4.0709,-4.0704,-4.0727,-4.0737,-4.0722,-4.071,-4.0719,-4.0729,-4.0722,-4.0728,-4.0756,-4.0743,-4.0633,-4.0616,-4.06,-4.059,-4.0758,-4.0758,-4.086,-4.0861,-4.0861]},{"header":{"parameterUnit":"m.s-1","parameterCategory":1,"la1":30.2991,"la2":30.254,"lo1":-89.0895,"lo2":-89.0444,"dy":0.0017,"dx":0.0017,"nx":28,"ny":28,"refTime":"2024-03-02T09:00:00:Z","depth":0,"parameterNumber":3,"parameterNumberName":"V-component_of_WINDS"},"data":[0,0,0,0,0,0,0,0,0,0,0,0,0,0,0,0,0,0,0,0,0,0,0,0,0,0,0,0,0,0,0,0,0,0,0,0,0,0,0,0,0,0,0,0,0,0,0,0,0,0,0,0,0,0,0,0,0,0,0.522,0.5221,0,0.5237,0.5238,0.5238,0.5328,0.533,0.5333,0.5335,0.5346,0.5345,0.5343,0,0,0,0,0,0,0,0,0,0,0,0,0,0.5263,0.5262,0.522,0.5221,0.5221,0.5237,0.5238,0.5238,0.5328,0.5331,0.5333,0.5336,0.5347,0.5345,0.5343,0,0,0,0,0,0,0,0,0,0,0,0,0,0.5258,0.5261,0.522,0.5268,0.5272,0.5237,0.5238,0.5238,0.5327,0.5331,0.5334,0.5337,0.5347,0.5345,0.5342,0.5261,0,0,0.5335,0.5333,0,0,0,0,0,0,0,0,0.5258,0.5257,0.5261,0.5265,0.527,0.5284,0.5257,0.5245,0.5327,0.5306,0.5335,0.5339,0.5323,0.5322,0.5318,0.5262,0.5262,0.5334,0.5333,0.5332,0.5331,0,0,0,0,0,0,0,0.5259,0.5256,0.5227,0.5261,0.5266,0.5287,0.529,0.5255,0.5296,0.5308,0.5315,0.5316,0.5326,0.532,0.5319,0.5262,0.5334,0.5332,0.533,0.5329,0.5142,0.5139,0,0,0,0,0,0,0.5253,0.5256,0.5226,0.5228,0.5272,0.5284,0.5287,0.5276,0.5296,0.5303,0.5313,0.532,0.5323,0.5322,0.532,0.5228,0.5332,0.5329,0.5328,0.5146,0.5142,0.5138,0,0,0,0,0,0,0.5253,0.5249,0.5226,0.5244,0.5242,0.528,0.5266,0.5275,0.527,0.53,0.5307,0.5301,0.5326,0.5323,0.5276,0.5229,0.5328,0.5326,0.515,0.5144,0.514,0.5041,0,0,0,0,0,0,0.5254,0.5249,0.5219,0.5242,0.5241,0.5182,0.5264,0.5273,0.5266,0.5275,0.529,0.5296,0.5328,0.5279,0.5273,0.5227,0.5324,0.5154,0.5147,0.5141,0.5049,0.5033,0.502,0,0,0,0,0,0.5255,0.5189,0.5217,0.5213,0.5205,0.5179,0.5179,0.5219,0.5261,0.5231,0.5252,0.5295,0.5235,0.5274,0.5268,0.522,0.5157,0.5149,0.5142,0.5055,0.5036,0.502,0,0,0,0,0,0,0.5156,0.5193,0.5224,0.5164,0.5168,0.5195,0.5158,0.5197,0.5188,0.5196,0.5245,0.5248,0.5193,0.5202,0.5244,0.5144,0.5204,0.5195,0.514,0.5122,0.5108,0.5107,0.5322,0,0,0,0,0,0.5128,0.5106,0.5138,0.5081,0.5082,0.512,0.511,0.5141,0.5147,0.5148,0.5165,0.5167,0.515,0.5136,0.5121,0.5051,0.5056,0.5015,0.5001,0.4989,0.498,0.4945,0.4928,0.5113,0.5113,0.5113,0,0,0.5068,0.5085,0.5068,0.5062,0.5069,0.5045,0.512,0.509,0.5073,0.5143,0.5101,0.5113,0.5119,0.506,0.5035,0.5066,0.4931,0.4979,0.4969,0.4967,0.4936,0.4918,0.4902,0.5107,0.5108,0.5109,0,0,0.4947,0.4957,0.4912,0.4919,0.493,0.4955,0.4944,0.4966,0.4978,0.4936,0.4989,0.4968,0.4935,0.4938,0.4935,0.4818,0.4858,0.4811,0.4736,0.4702,0.4687,0.4675,0.4634,0.4618,0.4803,0.4802,0.4802,0,0.487,0.4837,0.4883,0.4851,0.4848,0.4913,0.4868,0.4871,0.4875,0.4871,0.4906,0.4869,0.4877,0.4821,0.4793,0.4788,0.4777,0.481,0.4686,0.4674,0.4662,0.4624,0.4608,0.4797,0.4797,0.4798,0.4799,0,0.4743,0.4719,0.4681,0.4687,0.4679,0.464,0.468,0.4666,0.4698,0.472,0.4677,0.469,0.468,0.4669,0.4698,0.4617,0.4636,0.4678,0.4739,0.4638,0.4603,0.4589,0.4789,0.4791,0.4792,0.4794,0,0,0.4558,0.4593,0.4578,0.4583,0.4601,0.4582,0.4547,0.4539,0.4527,0.4528,0.4499,0.4472,0.4511,0.4508,0.4538,0.4508,0.4416,0.4554,0.4554,0.4528,0.4328,0.4297,0.428,0.4443,0.444,0.4438,0.4328,0,0.4443,0.4386,0.4428,0.4364,0.4343,0.4406,0.4375,0.4382,0.4402,0.4386,0.4407,0.4388,0.4441,0.444,0.4412,0.4433,0.4376,0.4441,0.4416,0.4415,0.4413,0.4261,0.4228,0.4123,0.4315,0.4312,0.4311,0,0.4301,0.4299,0.4233,0.4258,0.4251,0.4222,0.422,0.4204,0.4214,0.4231,0.4228,0.4268,0.4234,0.4295,0.4249,0.4292,0.4285,0.4293,0.429,0.429,0.4357,0.4257,0.4091,0.4075,0.4289,0.4291,0.4292,0,0.4174,0.4155,0.4114,0.4115,0.4143,0.4122,0.4132,0.4145,0.4139,0.4136,0.4132,0.4125,0.412,0.4113,0.4149,0.419,0.4099,0.4163,0.4112,0.4111,0.4089,0.409,0.392,0.4084,0.4084,0.4084,0.4084,0,0.4042,0.3999,0.4058,0.4032,0.3987,0.4035,0.3988,0.4005,0.4016,0.3995,0.4048,0.4026,0.4075,0.4058,0.4086,0.4045,0.4042,0.4054,0.4062,0.4049,0.4048,0.4045,0.4053,0.408,0.4081,0.4082,0.4082,0,0.3892,0.393,0.389,0.392,0.3927,0.3892,0.3917,0.3895,0.3919,0.3891,0.3887,0.3924,0.3908,0.3944,0.393,0.3949,0.3891,0.391,0.3888,0.3894,0.3842,0.3846,0.3664,0.3643,0.3819,0.3817,0.3816,0,0.3806,0.3775,0.3803,0.3794,0.3802,0.3785,0.378,0.3827,0.3819,0.3829,0.3805,0.3793,0.3786,0.3756,0.3781,0.3772,0.3791,0.3728,0.379,0.3779,0.3791,0.3793,0.3791,0.3715,0.3713,0.3711,0.371,0,0.3648,0.3669,0.366,0.3658,0.3651,0.3651,0.3655,0.3643,0.3693,0.3682,0.3667,0.3661,0.365,0.3637,0.3635,0.3644,0.3685,0.3691,0.3679,0.3665,0.3655,0.3661,0.3854,0.3694,0.3696,0.3697,0.3698,0.3698,0.3528,0.3504,0.3522,0.351,0.3519,0.3522,0.3503,0.3526,0.3515,0.3511,0.3539,0.3518,0.3529,0.3531,0.3536,0.3519,0.3548,0.353,0.3525,0.352,0.3512,0.3657,0.3519,0.3519,0.352,0.352,0.352,0,0.3374,0.3389,0.3378,0.3384,0.3375,0.3417,0.3424,0.3413,0.3395,0.3403,0.3396,0.3379,0.3368,0.3393,0.3386,0.3368,0.3387,0.3364,0.3366,0.3368,0.3487,0.3498,0.335,0.335,0.335,0.335,0.335,0.335,0.3293,0.3256,0.3279,0.3247,0.3262,0.3243,0.3244,0.3246,0.3254,0.3234,0.3225,0.3243,0.3258,0.3253,0.3244,0.3252,0.3247,0.3218,0.3232,0.3343,0.3359,0.3375,0.3386,0.3216,0.3216,0.3115,0.3114,0.3113]}]]